Hourly Data Report for July 16, 2021

BORDEN AWOS
ONTARIO
Current Station Operator: DND

44°16'20.000" N
79°54'42.000" W
222.50 m
611B002
71534
YBN

Download Data

Hourly Data (July 2021)
Hourly Data Report for July 16, 2021
TIME
LST
Temp Definition
°C
Dew Point Definition
°C
Rel Hum Definition
%
Precip. Amount Definition
mm

Wind Dir Definition
10's deg

Wind Spd Definition
km/h
Visibility Definition
km
Stn Press Definition
kPa
Hmdx Definition


Wind Chill Definition


Weather Definition


00:00 19.3 16.6 84   30 7 14.5 98.81     LegendNANA
01:00 18.9 16.8 88   31 9 14.5 98.83     LegendNANA
02:00 18.1 16.5 90   31 9 14.5 98.86     LegendNANA
03:00 17.2 16.1 93   32 6 14.5 98.90     LegendNANA
04:00 16.1 15.5 96   29 4 14.5 98.96     LegendNANA
05:00 14.8 14.6 99   26 7 2.7 99.03     LegendNANA
06:00 16.2 15.8 98   29 4 14.5 99.09     LegendNANA
07:00 18.2 16.4 89   31 13 14.5 99.16     LegendNANA
08:00 19.1 15.1 78   33 13 14.5 99.19     LegendNANA
09:00 20.6 15.4 72   30 9 14.5 99.21 25   LegendNANA
10:00 21.3 13.6 62   35 7 14.5 99.25     LegendNANA
11:00 22.3 13.5 58   1 9 14.5 99.26 25   LegendNANA
12:00 23.0 13.6 55   36 7 14.5 99.27 26   LegendNANA
13:00 23.8 14.6 56   34 6 14.5 99.23 28   LegendNANA
14:00 23.7 12.3 49   12 9 14.5 99.20 26   LegendNANA
15:00 23.4 13.5 54   14 7 14.5 99.18 26   LegendNANA
16:00 22.5 16.1 67   35 7 14.5 99.15 27   LegendNANA
17:00 21.2 16.3 74   36 7 14.5 99.13 26   LegendNANA
18:00 19.9 15.0 73   33 7 14.5 99.15     LegendNANA
19:00 18.9 15.5 81     0 14.5 99.17     LegendNANA
20:00 17.8 14.8 83     0 14.5 99.18     LegendNANA
21:00 16.4 15.0 91     0 14.5 99.24     LegendNANA
22:00 16.0 14.8 93     0 14.5 99.25     LegendNANA
23:00 15.2 14.6 96   34 4 14.5 99.23     LegendNANA

Notes on Data Quality.

Legend

  • E = Estimated
  • M = Missing
  • NA = Not Available*
  • [empty] = Indicates an unobserved value
Date modified: